Temp
61 63 61 60 59 59 60 61 61 60 61 61 60 61 61 61 60 60 59 59 58 57 57 56 56 55 55
56 57 58 60 61 60 58 59 59 58 58 59 60 59 59 58 57 56 56 55 55 54 55 55 54 54 54
53 56 57 58 56 53 57 56 54 55 57 57 59 58 57 56 54 53 52 52 52 52 52 52 52 52 52
51 53 54 56 51 53 51 47 49 50 52 54 56 56 56 55 53 51 50 49 50 50 49 49 49 49 50
48 51 51 51 48 51 49 52 48 50 47 48 51 52 51 52 50 48 48 47 47 48 49 48 47 47 48
45 45 48 50 52 52 50 49 46 43 43 44 46 46 47 47 48 48 46 46 46 48 48 48 47 47 47
43 44 45 49 52 50 51 49 48 43 43 41 40 42 40 42 47 46 45 45 46 46 47 46 46 46 47
44 45 46 48 49 49 49 50 39 38 43 37 35 37 36 38 45 45 44 44 44 45 46 46 45 45 46
47 47 47 48 48 47 45 40 38 35 36 34 32 31 33 33 38 42 42 42 44 46 46 45 45 44 43
45 46 47 47 48 46 45 42 39 32 33 34 30 30 28 30 32 32 36 43 45 46 46 45 44 36 32
41 42 44 43 38 37 37 43 42 34 34 33 30 28 28 26 28 30 31 34 36 41 45 44 44 39 30
36 38 40 36 33 33 33 33 34 34 35 32 29 28 26 25 25 27 29 30 31 30 30 36 41 43 42
34 35 34 33 32 31 31 30 30 30 30 29 29 27 27 26 24 24 27 28 26 26 25 26 26 27 24
33 34 32 30 29 30 29 29 27 25 28 28 27 26 24 25 25 22 23 23 23 23 24 25 26 27 26
32 31 30 28 28 29 29 28 26 25 25 26 27 26 24 21 18 18 19 19 22 22 22 22 24 26 26
31 30 29 27 27 27 28 27 25 25 24 24 22 19 19 21 25 16 20 20 21 22 22 21 22 24 25
29 29 28 27 27 27 27 27 25 23 19 19 14 8 8 12 19 29 21 21 22 22 23 22 23 24 26
MSLP
994.84 994.18 993.97 994.01 993.80 993.47 993.14 992.98 992.80 992.83 992.93 993.04 993.06 993.40 993.66 994.10 994.59 995.36 996.06 996.92 997.90 998.65 999.22 999.70 1000.34 1000.97 1001.64
994.13 993.81 993.34 992.86 992.22 992.15 992.11 991.65 991.56 991.42 991.62 991.84 991.89 992.03 992.57 993.10 993.85 994.49 995.36 996.36 997.09 998.05 998.60 999.12 999.84 1000.51 1000.92
993.60 993.21 992.62 992.14 991.50 991.16 990.93 991.02 990.90 990.83 990.78 990.49 990.74 991.06 991.47 991.89 992.92 993.78 994.38 995.42 996.75 997.67 998.00 998.66 999.57 1000.12 1000.47
993.62 992.60 992.14 991.45 991.05 990.69 990.56 990.75 990.67 989.76 990.53 990.03 989.80 990.09 990.32 990.85 991.79 992.89 993.81 994.81 996.15 996.73 997.28 997.90 999.37 999.92 1000.25
993.73 992.55 991.40 990.97 990.93 990.26 989.72 989.48 989.09 989.36 989.50 989.08 989.34 989.07 989.45 990.05 991.06 992.23 993.27 994.43 995.46 996.23 996.99 997.51 998.76 999.59 999.89
993.67 992.52 991.35 990.81 990.09 989.53 989.14 988.67 988.15 988.26 988.28 988.57 988.95 988.59 989.07 989.26 990.16 991.35 992.75 993.82 994.41 996.02 996.31 996.86 998.07 998.86 999.24
993.49 992.03 991.18 990.27 989.51 988.63 988.11 987.81 987.10 987.17 987.75 987.99 988.41 988.60 989.28 989.31 989.90 991.06 992.43 993.19 993.86 995.23 995.57 996.65 997.37 997.97 998.48
992.98 991.45 990.87 989.86 989.36 988.45 987.46 986.74 986.90 986.69 986.85 987.80 988.24 988.52 989.17 989.61 989.68 990.73 991.89 992.90 993.46 994.34 995.07 996.02 996.66 997.33 997.79
991.01 989.95 989.28 988.69 988.30 987.67 986.69 986.67 986.60 986.64 986.42 986.70 987.95 988.70 989.22 989.35 990.02 990.77 991.93 992.53 993.14 993.81 994.53 995.37 996.02 996.74 997.38
989.08 988.14 987.51 986.85 986.41 986.25 985.77 985.23 985.21 985.96 985.93 985.90 987.46 988.31 989.41 989.70 990.24 991.24 991.85 992.16 992.77 993.32 993.95 994.60 995.41 996.37 997.04
988.75 987.28 986.24 985.59 985.44 985.31 984.92 983.98 983.52 984.13 984.34 985.27 986.72 987.62 988.32 989.54 990.44 991.25 991.80 992.29 992.49 993.00 993.57 994.26 994.94 995.66 996.64
988.57 987.06 985.82 985.30 985.18 984.95 984.50 983.89 983.39 983.70 984.50 984.77 986.34 986.93 988.07 989.43 990.38 991.58 992.25 992.36 992.66 993.42 993.90 994.27 994.65 994.92 995.39
988.18 986.98 986.12 985.45 985.30 985.07 984.77 984.45 984.83 985.22 985.37 985.46 985.94 987.21 987.99 989.22 990.42 991.32 991.96 992.57 993.10 993.57 994.07 994.53 994.87 995.12 995.42
987.95 986.88 986.37 986.01 985.88 985.43 985.18 985.20 985.32 986.31 986.48 986.76 987.30 988.06 989.05 989.62 990.13 991.34 991.77 992.40 993.01 993.47 993.91 994.29 994.56 994.69 994.92
987.81 987.12 986.73 986.52 986.36 986.00 985.76 985.90 986.20 986.93 987.54 988.08 988.57 988.96 989.34 989.86 990.75 991.16 991.85 992.48 992.86 993.37 993.83 994.05 994.06 994.18 994.44
987.73 987.21 986.88 986.73 986.56 986.61 986.51 986.75 987.00 987.61 988.27 988.81 989.26 989.66 990.11 990.51 990.61 991.30 991.97 992.47 992.69 992.95 993.35 993.65 993.55 993.58 993.79
987.76 987.22 986.95 986.88 986.85 986.95 987.12 987.39 987.82 988.50 989.20 989.64 990.07 990.68 991.40 991.30 990.92 990.96 991.49 992.00 992.33 992.57 992.57 992.80 992.84 992.94 993.06
Wind_Speed
12 13 14 14 12 12 15 16 15 25 30 31 29 29 26 22 23 24 23 24 23 22 21 19 18 18 20
15 12 14 14 16 16 13 13 14 17 23 29 28 26 25 24 25 23 22 24 23 22 21 17 17 19 19
16 12 12 11 12 9 12 14 9 17 21 24 26 26 26 26 25 25 24 22 20 20 17 16 18 19 18
12 13 11 11 5 8 10 5 9 6 15 16 21 25 26 27 26 24 22 22 21 21 19 18 18 18 18
14 14 12 10 8 7 9 11 11 11 8 9 10 11 14 23 18 22 22 21 21 20 21 19 19 19 19
13 15 18 14 11 11 11 11 9 4 7 11 9 9 9 10 22 23 23 22 20 22 21 20 20 21 19
19 19 19 18 16 15 14 12 13 4 10 9 6 9 4 8 23 23 22 21 22 22 20 21 20 18 19
17 21 20 19 18 18 17 15 3 1 8 7 5 6 6 6 23 21 21 21 20 22 23 21 19 18 18
28 31 32 32 27 15 14 8 6 5 5 4 4 3 4 5 7 19 20 20 23 23 21 19 18 18 13
20 20 22 20 26 16 12 13 7 3 5 6 4 4 4 2 4 2 7 19 21 21 20 19 18 4 4
16 14 13 12 6 6 7 11 9 2 7 6 3 3 3 4 3 3 4 4 3 9 17 18 18 12 5
13 12 11 6 3 3 2 3 5 3 10 6 4 3 5 3 4 4 2 3 3 3 3 4 11 14 15
12 11 9 4 0 1 6 11 12 10 7 6 7 8 4 4 5 4 5 3 3 3 3 4 4 4 1
11 10 3 2 2 2 3 5 8 8 11 10 9 5 3 4 3 4 2 4 3 3 3 3 3 3 4
10 8 2 1 1 1 2 3 5 5 7 6 7 7 5 5 3 2 3 2 3 3 3 2 3 5 5
9 5 2 1 2 2 3 4 6 6 6 4 2 3 4 3 2 3 3 3 3 4 3 3 3 4 5
8 4 1 2 3 3 3 4 5 5 3 2 3 3 3 2 2 7 3 3 4 4 4 5 3 3 4
Wind_Direction
282 274 258 255 253 237 235 235 238 235 233 236 231 232 228 224 205 199 195 198 204 206 213 215 220 223 231
292 288 273 259 249 246 239 234 235 232 234 235 230 224 219 211 203 194 192 199 199 208 210 211 219 226 229
288 289 283 274 267 261 248 244 239 246 241 230 231 221 214 198 194 192 191 192 200 211 202 209 219 223 226
282 287 286 292 269 262 260 235 249 245 248 240 229 221 213 195 190 190 186 189 198 199 198 200 217 223 225
292 291 280 283 273 266 251 259 231 227 227 230 225 214 194 193 183 182 182 189 196 200 205 199 212 221 221
293 287 289 288 283 278 261 253 252 197 194 229 210 197 188 189 177 179 182 186 191 213 205 204 210 216 218
285 282 286 288 287 275 275 254 246 205 198 218 202 200 186 169 169 171 183 191 196 208 203 209 209 215 221
278 280 280 283 283 290 291 287 323 189 180 196 175 186 159 174 175 176 187 200 198 204 206 204 210 216 219
273 271 272 271 271 275 271 239 239 228 183 131 164 114 160 151 172 184 194 202 204 205 202 206 205 214 222
289 276 273 269 268 262 264 250 214 195 200 149 138 145 145 94 123 165 199 206 205 206 206 205 202 187 178
297 290 279 267 268 261 257 257 230 205 182 126 133 122 64 120 106 156 199 207 179 206 202 197 207 201 176
296 297 296 279 244 256 329 34 46 115 151 102 120 134 125 96 123 144 164 124 114 121 135 189 224 225 220
297 297 290 284 163 56 69 76 70 67 59 60 109 106 86 111 143 153 132 157 146 150 154 169 181 189 179
298 297 305 359 358 8 97 97 86 66 58 60 71 79 103 88 103 124 120 151 146 172 162 173 191 199 193
302 296 308 48 55 29 72 41 84 103 89 71 69 67 66 127 99 112 132 134 170 147 150 208 222 205 201
303 291 265 172 126 57 53 87 112 107 104 102 82 53 36 15 157 123 125 166 183 180 181 191 241 206 206
305 292 256 190 130 102 85 95 89 95 75 65 66 87 70 65 309 181 146 176 171 184 187 194 213 204 194